2018-055A

Last updated on Wed Jul 04 2018 00:15:04 GMT+0000 (Coordinated Universal Time)

1 43522U 18055A 18184.53536103 .00760287 11376-4 97940-3 0 9997 2 43522 51.6520 296.4977 0089859 62.4043 298.6051 15.98710270 662

Satellite not in orbit